Time,TemperatureF,DewpointF,PressureIn,WindDirection,WindDirectionDegrees,WindSpeedMPH,WindSpeedGustMPH,Humidity,HourlyPrecipIn,Conditions,Clouds,dailyrainin,SoftwareType,DateUTC
2013-07-14 00:02:00,79.0,77.0,29.98,South,176,0.0,0.0,93,0.02,,,0.98,,2013-07-14 04:02:00,
2013-07-14 00:11:00,80.0,77.0,29.98,SSE,167,0.0,0.0,92,0.03,,,0.99,,2013-07-14 04:11:00,
2013-07-14 00:22:00,80.0,77.0,29.99,SSE,148,0.0,0.0,91,0.02,,,0.99,,2013-07-14 04:22:00,
2013-07-14 00:32:00,79.0,76.0,29.98,SSE,153,0.0,0.0,90,0.02,,,0.99,,2013-07-14 04:32:00,
2013-07-14 00:42:00,79.0,75.0,29.98,South,169,0.0,0.0,89,0.11,,,1.08,,2013-07-14 04:42:00,
2013-07-14 00:53:00,79.0,75.0,29.98,SE,138,0.0,0.0,89,0.11,,,1.09,,2013-07-14 04:53:00,
2013-07-14 01:02:00,79.0,76.0,29.99,South,173,0.0,0.0,90,0.13,,,1.11,,2013-07-14 05:02:00,
2013-07-14 01:11:00,79.0,76.0,29.99,SE,145,0.0,0.0,90,0.13,,,1.12,,2013-07-14 05:11:00,
2013-07-14 01:23:00,79.0,75.0,29.99,SE,142,0.0,0.0,89,0.18,,,1.17,,2013-07-14 05:23:00,
2013-07-14 01:32:00,79.0,75.0,29.98,SE,134,0.0,0.0,89,0.17,,,1.17,,2013-07-14 05:32:00,
2013-07-14 01:43:00,79.0,75.0,29.98,SE,133,0.0,0.0,89,0.10,,,1.18,,2013-07-14 05:43:00,
2013-07-14 01:53:00,79.0,76.0,29.98,SSE,148,0.0,0.0,90,0.09,,,1.18,,2013-07-14 05:53:00,
2013-07-14 02:01:00,79.0,76.0,29.98,ESE,118,0.0,0.0,90,0.07,,,1.18,,2013-07-14 06:01:00,
2013-07-14 02:11:00,79.0,76.0,29.97,SSE,149,0.0,0.0,90,0.07,,,1.19,,2013-07-14 06:11:00,
2013-07-14 02:22:00,79.0,75.0,29.97,SSE,168,0.0,0.0,89,0.08,,,1.25,,2013-07-14 06:22:00,
2013-07-14 02:32:00,79.0,75.0,29.97,SSE,149,0.0,0.0,88,0.16,,,1.34,,2013-07-14 06:32:00,
2013-07-14 02:42:00,79.0,74.0,29.97,ESE,117,0.0,0.0,86,0.18,,,1.36,,2013-07-14 06:42:00,
2013-07-14 02:53:00,79.0,74.0,29.98,SSE,153,0.0,0.0,85,0.18,,,1.36,,2013-07-14 06:53:00,
2013-07-14 03:02:00,80.0,75.0,29.97,SSE,148,0.0,0.0,85,0.18,,,1.36,,2013-07-14 07:02:00,
2013-07-14 03:12:00,80.0,75.0,29.97,SSE,147,0.0,0.0,86,0.17,,,1.36,,2013-07-14 07:12:00,
2013-07-14 03:22:00,79.0,75.0,29.97,SE,128,0.0,0.0,87,0.09,,,1.36,,2013-07-14 07:22:00,
2013-07-14 03:33:00,79.0,75.0,29.98,SE,127,0.0,0.0,88,0.02,,,1.36,,2013-07-14 07:33:00,
2013-07-14 03:43:00,79.0,75.0,29.97,SE,146,0.0,0.0,89,0.00,,,1.36,,2013-07-14 07:43:00,
2013-07-14 03:53:00,79.0,75.0,29.97,South,169,0.0,0.0,89,0.00,,,1.36,,2013-07-14 07:53:00,
2013-07-14 04:01:00,79.0,75.0,29.96,SE,144,0.0,0.0,89,0.02,,,1.38,,2013-07-14 08:01:00,
2013-07-14 04:11:00,79.0,75.0,29.96,South,172,0.0,0.0,89,0.02,,,1.38,,2013-07-14 08:11:00,
2013-07-14 04:22:00,79.0,75.0,29.96,SSE,153,0.0,0.0,89,0.02,,,1.38,,2013-07-14 08:22:00,
2013-07-14 04:32:00,79.0,75.0,29.96,SSE,153,0.0,0.0,89,0.03,,,1.39,,2013-07-14 08:32:00,
2013-07-14 04:42:00,79.0,75.0,29.96,SSE,149,0.0,0.0,89,0.04,,,1.40,,2013-07-14 08:42:00,
2013-07-14 04:53:00,79.0,75.0,29.96,SE,144,0.0,0.0,89,0.02,,,1.40,,2013-07-14 08:53:00,
2013-07-14 05:01:00,79.0,75.0,29.96,SSE,153,0.0,0.0,88,0.03,,,1.41,,2013-07-14 09:01:00,
2013-07-14 05:11:00,80.0,76.0,29.95,SSE,153,0.0,0.0,88,0.05,,,1.43,,2013-07-14 09:11:00,
2013-07-14 05:22:00,80.0,76.0,29.95,SE,145,0.0,0.0,87,0.12,,,1.50,,2013-07-14 09:22:00,
2013-07-14 05:32:00,80.0,76.0,29.94,SE,144,0.0,0.0,87,0.12,,,1.51,,2013-07-14 09:32:00,
2013-07-14 05:42:00,80.0,76.0,29.94,SE,133,0.0,0.0,87,0.11,,,1.51,,2013-07-14 09:42:00,
2013-07-14 05:52:00,80.0,75.0,29.93,SE,146,0.0,0.0,86,0.12,,,1.52,,2013-07-14 09:52:00,
2013-07-14 06:01:00,80.0,75.0,29.93,SSE,168,0.0,0.0,85,0.11,,,1.52,,2013-07-14 10:01:00,
2013-07-14 06:12:00,81.0,76.0,29.94,SSE,168,0.0,0.0,84,0.09,,,1.52,,2013-07-14 10:12:00,
2013-07-14 06:22:00,81.0,76.0,29.94,SSE,163,0.0,0.0,84,0.02,,,1.52,,2013-07-14 10:22:00,
2013-07-14 06:32:00,81.0,75.0,29.95,SSE,153,0.0,0.0,83,0.03,,,1.54,,2013-07-14 10:32:00,
2013-07-14 06:42:00,81.0,75.0,29.96,SSE,158,0.0,0.0,83,0.12,,,1.63,,2013-07-14 10:42:00,
2013-07-14 06:53:00,81.0,75.0,29.96,South,172,0.0,0.0,83,0.16,,,1.68,,2013-07-14 10:53:00,
2013-07-14 07:02:00,82.0,77.0,29.96,South,171,0.0,0.0,84,0.17,,,1.69,,2013-07-14 11:02:00,
2013-07-14 07:11:00,81.0,76.0,29.96,SE,143,0.0,0.0,85,0.19,,,1.71,,2013-07-14 11:11:00,
2013-07-14 07:22:00,81.0,76.0,29.96,SSE,148,0.0,0.0,86,0.19,,,1.71,,2013-07-14 11:22:00,
2013-07-14 07:32:00,81.0,76.0,29.97,SE,129,0.0,0.0,86,0.17,,,1.71,,2013-07-14 11:32:00,
2013-07-14 07:43:00,81.0,76.0,29.97,SE,131,0.0,0.0,86,0.08,,,1.71,,2013-07-14 11:43:00,
2013-07-14 07:53:00,81.0,76.0,29.98,SSE,149,0.0,0.0,86,0.03,,,1.71,,2013-07-14 11:53:00,
2013-07-14 08:02:00,81.0,76.0,29.98,East,83,0.0,0.0,86,0.00,,,1.71,,2013-07-14 12:02:00,
2013-07-14 08:11:00,81.0,76.0,29.98,SSE,153,0.0,0.0,86,0.00,,,1.71,,2013-07-14 12:11:00,
2013-07-14 08:22:00,81.0,76.0,29.98,SE,127,0.0,0.0,85,0.00,,,1.71,,2013-07-14 12:22:00,
2013-07-14 08:33:00,81.0,76.0,29.99,SE,140,0.0,0.0,85,0.00,,,1.71,,2013-07-14 12:33:00,
2013-07-14 08:43:00,81.0,76.0,30.00,SE,138,0.0,0.0,84,0.00,,,1.71,,2013-07-14 12:43:00,
2013-07-14 08:52:00,82.0,77.0,29.98,SE,142,0.0,0.0,84,0.00,,,1.71,,2013-07-14 12:52:00,
2013-07-14 09:01:00,82.0,77.0,30.00,SE,143,0.0,0.0,84,0.00,,,1.71,,2013-07-14 13:01:00,
2013-07-14 09:11:00,82.0,76.0,30.01,ESE,121,0.0,0.0,83,0.00,,,1.71,,2013-07-14 13:11:00,
2013-07-14 09:22:00,82.0,76.0,30.01,SE,144,0.0,0.0,81,0.00,,,1.71,,2013-07-14 13:22:00,
2013-07-14 09:32:00,82.0,76.0,30.02,SW,225,0.0,0.0,82,0.00,,,1.71,,2013-07-14 13:32:00,
2013-07-14 09:42:00,81.0,76.0,30.02,SSW,203,0.0,0.0,84,0.00,,,1.71,,2013-07-14 13:42:00,
2013-07-14 09:53:00,80.0,76.0,30.02,WSW,237,0.0,0.0,87,0.00,,,1.71,,2013-07-14 13:53:00,
2013-07-14 10:02:00,79.0,75.0,30.02,SW,233,0.0,0.0,88,0.00,,,1.71,,2013-07-14 14:02:00,
2013-07-14 10:11:00,79.0,75.0,30.03,WSW,246,0.0,0.0,88,0.00,,,1.71,,2013-07-14 14:11:00,
2013-07-14 10:23:00,79.0,75.0,30.03,WSW,246,0.0,0.0,89,0.00,,,1.71,,2013-07-14 14:23:00,
2013-07-14 10:33:00,79.0,75.0,30.02,West,269,0.0,0.0,89,0.00,,,1.71,,2013-07-14 14:33:00,
2013-07-14 10:43:00,79.0,75.0,30.02,West,269,0.0,0.0,89,0.00,,,1.71,,2013-07-14 14:43:00,
2013-07-14 10:53:00,79.0,75.0,30.02,West,269,0.0,0.0,89,0.00,,,1.71,,2013-07-14 14:53:00,
2013-07-14 11:01:00,79.0,75.0,30.02,West,269,0.0,0.0,89,0.00,,,1.71,,2013-07-14 15:01:00,
2013-07-14 11:12:00,79.0,76.0,30.02,West,269,0.0,0.0,90,0.00,,,1.71,,2013-07-14 15:12:00,
2013-07-14 11:22:00,79.0,76.0,30.02,ENE,63,0.0,0.0,90,0.00,,,1.71,,2013-07-14 15:22:00,
2013-07-14 11:32:00,80.0,77.0,30.03,ENE,78,0.0,0.0,90,0.00,,,1.71,,2013-07-14 15:32:00,
2013-07-14 11:42:00,80.0,77.0,30.02,East,94,0.0,0.0,90,0.00,,,1.71,,2013-07-14 15:42:00,
2013-07-14 11:53:00,80.0,77.0,30.03,East,92,0.0,0.0,90,0.00,,,1.71,,2013-07-14 15:53:00,
2013-07-14 12:01:00,80.0,77.0,30.03,ESE,115,0.0,0.0,90,0.00,,,1.71,,2013-07-14 16:01:00,
2013-07-14 12:11:00,81.0,78.0,30.03,ESE,107,0.0,0.0,90,0.00,,,1.71,,2013-07-14 16:11:00,
2013-07-14 12:22:00,81.0,77.0,30.03,SE,132,0.0,0.0,89,0.00,,,1.71,,2013-07-14 16:22:00,
2013-07-14 12:32:00,82.0,78.0,30.03,ESE,116,0.0,0.0,88,0.00,,,1.71,,2013-07-14 16:32:00,
2013-07-14 12:43:00,82.0,77.0,30.03,ESE,104,0.0,0.0,86,0.00,,,1.71,,2013-07-14 16:43:00,
2013-07-14 12:53:00,83.0,78.0,30.03,ESE,121,0.0,0.0,85,0.00,,,1.71,,2013-07-14 16:53:00,
2013-07-14 13:02:00,83.0,78.0,30.03,ESE,115,0.0,0.0,84,0.00,,,1.71,,2013-07-14 17:02:00,
2013-07-14 13:11:00,84.0,79.0,30.03,ESE,115,0.0,0.0,84,0.00,,,1.71,,2013-07-14 17:11:00,
2013-07-14 13:22:00,84.0,78.0,30.03,ESE,109,0.0,0.0,83,0.00,,,1.71,,2013-07-14 17:22:00,
2013-07-14 13:32:00,85.0,78.0,30.03,East,85,0.0,0.0,81,0.00,,,1.71,,2013-07-14 17:32:00,
2013-07-14 13:43:00,85.0,79.0,30.03,East,93,0.0,0.0,82,0.00,,,1.71,,2013-07-14 17:43:00,
2013-07-14 13:53:00,86.0,79.0,30.03,East,94,0.0,0.0,81,0.00,,,1.71,,2013-07-14 17:53:00,
2013-07-14 14:01:00,86.0,79.0,30.03,ENE,73,0.0,0.0,81,0.00,,,1.71,,2013-07-14 18:01:00,
2013-07-14 14:11:00,86.0,79.0,30.03,East,100,0.0,0.0,81,0.00,,,1.71,,2013-07-14 18:11:00,
2013-07-14 14:22:00,87.0,80.0,30.02,ESE,118,0.0,0.0,80,0.00,,,1.71,,2013-07-14 18:22:00,
2013-07-14 14:32:00,87.0,80.0,30.02,ESE,106,0.0,0.0,80,0.00,,,1.71,,2013-07-14 18:32:00,
2013-07-14 14:42:00,88.0,81.0,30.02,East,86,0.0,0.0,79,0.00,,,1.71,,2013-07-14 18:42:00,
2013-07-14 14:52:00,88.0,81.0,30.01,ESE,107,0.0,0.0,79,0.00,,,1.71,,2013-07-14 18:52:00,
2013-07-14 15:01:00,89.0,81.0,30.01,East,98,0.0,0.0,77,0.00,,,1.71,,2013-07-14 19:01:00,
2013-07-14 15:12:00,90.0,82.0,30.01,ESE,115,0.0,0.0,77,0.00,,,1.71,,2013-07-14 19:12:00,
2013-07-14 15:22:00,90.0,81.0,30.00,ENE,65,0.0,0.0,75,0.00,,,1.71,,2013-07-14 19:22:00,
2013-07-14 15:32:00,90.0,81.0,30.00,East,90,0.0,0.0,75,0.00,,,1.71,,2013-07-14 19:32:00,
2013-07-14 15:43:00,89.0,80.0,30.00,ESE,106,0.0,0.0,75,0.00,,,1.71,,2013-07-14 19:43:00,
2013-07-14 15:53:00,89.0,80.0,29.99,East,94,0.0,0.0,76,0.00,,,1.71,,2013-07-14 19:53:00,
2013-07-14 16:02:00,89.0,80.0,29.99,ENE,72,0.0,0.0,76,0.00,,,1.71,,2013-07-14 20:02:00,
2013-07-14 16:11:00,89.0,80.0,29.98,East,96,0.0,0.0,76,0.00,,,1.71,,2013-07-14 20:11:00,
2013-07-14 16:22:00,89.0,80.0,29.98,East,99,0.0,0.0,76,0.00,,,1.71,,2013-07-14 20:22:00,
2013-07-14 16:32:00,89.0,80.0,29.98,ESE,107,0.0,0.0,76,0.00,,,1.71,,2013-07-14 20:32:00,
2013-07-14 16:43:00,88.0,79.0,29.98,East,79,0.0,0.0,76,0.00,,,1.71,,2013-07-14 20:43:00,
2013-07-14 16:53:00,88.0,80.0,29.98,ESE,102,0.0,0.0,77,0.00,,,1.71,,2013-07-14 20:53:00,
2013-07-14 17:02:00,87.0,79.0,29.98,ESE,118,0.0,0.0,78,0.00,,,1.71,,2013-07-14 21:02:00,
2013-07-14 17:11:00,87.0,79.0,29.98,East,92,0.0,0.0,78,0.00,,,1.71,,2013-07-14 21:11:00,
2013-07-14 17:22:00,86.0,79.0,29.98,ESE,108,0.0,0.0,80,0.00,,,1.71,,2013-07-14 21:22:00,
2013-07-14 17:32:00,86.0,79.0,29.98,ESE,118,0.0,0.0,80,0.00,,,1.71,,2013-07-14 21:32:00,
2013-07-14 17:43:00,85.0,78.0,29.98,East,94,0.0,0.0,81,0.00,,,1.71,,2013-07-14 21:43:00,
2013-07-14 17:52:00,85.0,78.0,29.98,SE,144,0.0,0.0,81,0.00,,,1.71,,2013-07-14 21:52:00,
2013-07-14 18:01:00,85.0,78.0,29.98,ESE,108,0.0,0.0,81,0.00,,,1.71,,2013-07-14 22:01:00,
2013-07-14 18:11:00,85.0,78.0,29.98,ESE,105,0.0,0.0,81,0.00,,,1.71,,2013-07-14 22:11:00,
2013-07-14 18:22:00,85.0,79.0,29.98,ESE,111,0.0,0.0,82,0.00,,,1.71,,2013-07-14 22:22:00,
2013-07-14 18:32:00,84.0,78.0,29.98,SE,146,0.0,0.0,82,0.00,,,1.71,,2013-07-14 22:32:00,
2013-07-14 18:42:00,84.0,78.0,29.98,ESE,105,0.0,0.0,82,0.00,,,1.71,,2013-07-14 22:42:00,
2013-07-14 18:53:00,84.0,78.0,29.98,ENE,73,0.0,0.0,83,0.00,,,1.71,,2013-07-14 22:53:00,
2013-07-14 19:01:00,84.0,78.0,29.99,ESE,108,0.0,0.0,82,0.00,,,1.71,,2013-07-14 23:01:00,
2013-07-14 19:11:00,84.0,78.0,29.99,ESE,109,0.0,0.0,82,0.00,,,1.71,,2013-07-14 23:11:00,
2013-07-14 19:22:00,83.0,77.0,29.99,SE,125,0.0,0.0,81,0.00,,,1.38,,2013-07-14 23:22:00,
2013-07-14 19:32:00,84.0,78.0,30.00,East,94,0.0,0.0,82,0.00,,,1.38,,2013-07-14 23:32:00,
2013-07-14 19:42:00,84.0,78.0,30.00,ESE,113,0.0,0.0,83,0.00,,,1.38,,2013-07-14 23:42:00,
2013-07-14 19:53:00,83.0,77.0,30.00,ENE,78,0.0,0.0,83,0.00,,,1.38,,2013-07-14 23:53:00,
2013-07-14 20:02:00,83.0,77.0,30.00,SSE,153,0.0,0.0,82,0.00,,,1.38,,2013-07-15 00:02:00,
2013-07-14 20:11:00,83.0,77.0,30.01,East,90,0.0,0.0,82,0.00,,,1.38,,2013-07-15 00:11:00,
2013-07-14 20:22:00,83.0,77.0,30.01,ESE,102,0.0,0.0,82,0.00,,,1.37,,2013-07-15 00:22:00,
2013-07-14 20:32:00,83.0,77.0,30.01,East,87,0.0,0.0,82,0.00,,,1.37,,2013-07-15 00:32:00,
2013-07-14 20:43:00,83.0,77.0,30.01,ESE,106,0.0,0.0,83,0.00,,,1.37,,2013-07-15 00:43:00,
2013-07-14 20:53:00,83.0,77.0,30.01,ESE,106,0.0,0.0,83,0.00,,,1.37,,2013-07-15 00:53:00,
2013-07-14 21:01:00,83.0,77.0,30.01,ESE,107,0.0,0.0,83,0.00,,,1.37,,2013-07-15 01:01:00,
2013-07-14 21:11:00,83.0,77.0,30.01,ESE,107,0.0,0.0,82,0.00,,,1.37,,2013-07-15 01:11:00,
2013-07-14 21:22:00,83.0,77.0,30.01,East,84,0.0,0.0,82,0.00,,,0.76,,2013-07-15 01:22:00,
2013-07-14 21:32:00,83.0,77.0,30.01,ESE,109,0.0,0.0,82,0.00,,,0.76,,2013-07-15 01:32:00,
2013-07-14 21:43:00,83.0,77.0,30.01,ENE,73,0.0,0.0,83,0.00,,,0.76,,2013-07-15 01:43:00,
2013-07-14 21:53:00,83.0,77.0,30.01,East,82,0.0,0.0,83,0.00,,,0.76,,2013-07-15 01:53:00,
2013-07-14 22:02:00,83.0,77.0,30.01,East,95,0.0,0.0,83,0.00,,,0.76,,2013-07-15 02:02:00,
2013-07-14 22:11:00,83.0,77.0,30.02,East,79,0.0,0.0,83,0.00,,,0.76,,2013-07-15 02:11:00,
2013-07-14 22:22:00,83.0,77.0,30.02,ENE,60,0.0,0.0,83,0.00,,,0.76,,2013-07-15 02:22:00,
2013-07-14 22:32:00,83.0,77.0,30.02,ENE,71,0.0,0.0,83,0.00,,,0.76,,2013-07-15 02:32:00,
2013-07-14 22:42:00,83.0,77.0,30.02,ENE,77,0.0,0.0,83,0.00,,,0.76,,2013-07-15 02:42:00,
2013-07-14 22:53:00,82.0,76.0,30.02,East,87,0.0,0.0,83,0.00,,,0.76,,2013-07-15 02:53:00,
2013-07-14 23:02:00,82.0,76.0,30.03,ENE,61,0.0,0.0,83,0.00,,,0.76,,2013-07-15 03:02:00,
2013-07-14 23:11:00,82.0,77.0,30.03,NE,47,0.0,0.0,84,0.00,,,0.76,,2013-07-15 03:11:00,
2013-07-14 23:22:00,82.0,77.0,30.03,East,96,0.0,0.0,84,0.00,,,0.74,,2013-07-15 03:22:00,
2013-07-14 23:32:00,82.0,76.0,30.03,NNE,23,0.0,0.0,82,0.00,,,0.74,,2013-07-15 03:32:00,
2013-07-14 23:43:00,82.0,76.0,30.04,East,83,0.0,0.0,82,0.00,,,0.74,,2013-07-15 03:43:00,
2013-07-14 23:53:00,81.0,75.0,30.04,ESE,102,0.0,0.0,82,0.00,,,0.74,,2013-07-15 03:53:00,